Regional Weather Roundup
Issued by NWS Goodland, KS

Home | Current Version | Previous Version | Graphics & Text | Print | Product List | Glossary On
Versions: 1 2 3 4 5 6 7 8 9 10 11 12 13 14 15 16 17 18 19 20 21 22 23 24 25 26 27 28 29 30 31 32 33 34 35 36 37 38 39 40 41 42 43 44 45 46 47 48 49 50
000
ASUS43 KGLD 020859
RWRGLD

GOODLAND FORECAST AREA HOURLY WEATHER ROUNDUP
NATIONAL WEATHER SERVICE GOODLAND KS
300 AM MDT WED SEP 02 2015

...OFFICIAL OBSERVATIONS...

CITY           SKY/WX    TMP DP  RH WIND       PRES   REMARKS
GOODLAND KS    MOCLDY    70  57  63 SW5       29.97S
HILL CITY KS   CLEAR     78  57  48 SW13G22   29.91S
IMPERIAL NEB   CLEAR     65  56  72 SW7       29.94S
MCCOOK NEB     CLEAR     63  57  81 CALM      29.90S
AKRON CO       PTCLDY    63  49  60 W9        30.03F
BURLINGTON CO    N/A     63  55  75 S3        30.00F
LIMON CO       MOCLDY    62  50  64 W8        30.10S
$$

...UNOFFICIAL OBSERVATIONS...

CITY           SKY/WX    TMP DP  RH WIND       PRES   REMARKS
COLBY KS       CLEAR     70  61  73 S8        29.96S
LENORA KS        N/A     74  32  21 MISG        N/A
NORTON KS      CLEAR     73  54  49 S6        29.90F
YUMA CO          N/A     61  53  74 W6          N/A
$$


USA.gov is the U.S. government's official web portal to all federal, state and local government web resources and services.